Погода в Долгом

Россия / Липецкая область     53°27′32″N   39°06′21″E
темп.,
°C
ветер,
м/с
пор.,
м/с
влажн.,
%
обл.,
%
осадки,
мм/ч
давл.,
гПа
погр.,
м
14 мая, пт
пт1400:00+11вюв229197 0.0 101714
03:00+11в229158 0.0 101711
06:00+12юв2389100 0.0 101753
09:00+17юв577642 0.0 1016425
12:00+21юв6864100 0.0 10151203
15:00+22ююв71166100 0.5 10141436
18:00+20юв71476100 0.4 1012743
21:00+16ю4981100 0.4 1012147
15 мая, сб
сб1500:00+15вюв3390100 0.3 101134
03:00+15юв34946 1.1 101169
06:00+15юв3595100 0.5 1010128
09:00+20ю5783100 0.7 1011424
12:00+22ююз5771100 2.8 10101009
15:00+22ююз69620 4.5 10111628
18:00+20юз4870100 0.4 1011331
21:00+16юз36812 0.4 101389
16 мая, вс
вс1600:00+14ююз358510 0.0 101384
03:00+13юз349071 0.0 101462
06:00+14ююз348997 0.0 1015105
09:00+18ююз34706 0.0 1015446
12:00+21ююз45563 0.1 10151337
15:00+23юз46521 0.1 10141950
18:00+21зюз1265100 0.0 101343
21:00+17юв1272100 0.0 101411
17 мая, пн
пн1700:00+16в227485 0.0 101417
03:00+14всв348663 0.3 101451
06:00+15всв38908 0.0 1013177
09:00+20в5872100 0.0 1013407
12:00+25юв575662 0.0 1012840
15:00+26юв5753100 0.0 10111101
18:00+24вюв59665 0.0 1010343
21:00+19вюв514805 0.0 1010321
18 мая, вт
вт1800:00+17вюв5157931 0.0 1009302
03:00+16юв514715 0.0 1009282
06:00+15юв4127763 0.0 1009264
09:00+20ююв6136380 0.0 1008502
12:00+23ююв71057100 0.0 1008973
15:00+23ю7971100 2.4 10081063
18:00+18ююз4887100 5.3 1010384
21:00+16ю3792100 5.8 1010144